Location: St Andrew
(49.4460°N, 2.5750°W)
Time: 18:41:58
(UTC+01:00)

Daily predictions for brighter satellites

Satellite Brightness Start Highest point End
(mag) Time Altitude Azimuth Time Altitude Azimuth Time Altitude Azimuth
Aureole 3 Rocket 3.5 21:32:51 10° S 21:39:00 69° E 21:43:22 10° NNE
SPOT 5 3.2 21:35:29 10° SE 21:39:35 44° ENE 21:43:44 10° N
YAOGAN 6 2.8 21:37:20 10° S 21:40:48 71° WSW 21:44:20 10° NNW
Cosmos 2074 Rocket 4.2 21:35:42 10° N 21:41:59 82° W 21:48:14 10° S
Cosmos 2184 Rocket 4.2 21:36:17 10° N 21:42:41 84° W 21:49:00 10° S
Meteor 1-15 Rocket 4.5 21:37:23 10° N 21:42:55 56° ENE 21:48:23 10° SSE
Okean 1-7 Rocket 4.0 21:39:49 10° SSE 21:44:03 45° E 21:48:22 10° NNE
Cosmos 1346 2.7 21:41:23 10° S 21:44:08 75° ESE 21:46:55 10° NNE
Intercosmos 24 4.0 21:42:06 10° N 21:46:24 57° ENE 21:49:55 10° SSE
Lacrosse 5 rocket 3.4 21:42:32 10° WNW 21:46:41 33° N 21:50:54 10° ENE
Cosmos 2056 Rocket 3.8 21:42:40 10° NNW 21:47:48 54° ENE 21:52:49 10° SE
Cosmos 2228 4.4 21:45:14 10° NNE 21:48:48 24° ENE 21:52:20 10° SE
Cosmos 1680 Rocket 3.5 21:43:40 10° S 21:48:49 65° ESE 21:54:00 10° NNE
Terra 3.4 21:45:39 10° ESE 21:49:21 23° ENE 21:53:03 10° N
Cosmos 921 Rocket 3.9 21:49:23 10° N 21:53:39 38° ENE 21:57:46 10° SE
NOAA 11 4.2 21:48:53 10° SSE 21:54:20 87° ENE 21:59:49 10° NNW
ARGOS 3.3 21:50:50 10° SSE 21:56:12 69° ENE 22:01:37 10° N
Cosmos 405 Rocket 3.1 21:52:43 10° SSW 21:56:28 68° WNW 22:00:20 10° N
NOSS 2-2 (E) 3.7 21:52:56 10° SW 21:57:06 89° ESE 22:02:11 10° NE
ASTEX 1 3.5 21:53:09 10° S 21:58:04 80° W 22:02:59 10° N
CRYOSAT 2 4.4 21:56:04 10° S 22:00:55 84° W 22:05:48 10° N
COSMOS 2406 3.2 21:55:26 10° SSW 22:01:10 82° ESE 22:06:54 10° NNE
Cosmos 1606 Rocket 3.7 21:58:57 10° N 22:03:15 59° ENE 22:07:25 10° SSE
SL-27 R/B 2.5 22:00:45 10° S 22:04:22 64° ESE 22:08:00 10° NNE
Cosmos 2278 4.1 21:58:55 10° NNW 22:04:34 57° NE 22:09:49 12° SE
Cosmos 1238 Rocket 4.1 22:00:02 10° S 22:06:48 82° E 22:13:17 10° N
Cosmos 1441 Rocket 3.1 22:04:24 10° S 22:08:09 88° E 22:11:55 10° NNE
USA 245 2.0 22:07:38 12° SSE 22:09:57 78° ENE 22:12:17 10° N
Cosmos 2082 Rocket 3.6 22:07:33 11° SE 22:11:01 19° E 22:14:53 10° ENE
Tiangong 2 2.8 22:10:02 10° SSW 22:12:05 16° SSE 22:12:51 15° SE
Cosmos 1726 Rocket 3.6 22:09:35 10° N 22:13:54 64° ENE 22:17:45 13° SSE
SPOT 1/Viking Rocket 3.6 22:11:17 11° SSE 22:16:16 73° ENE 22:21:26 10° NNW
YAOGAN 11 4.2 22:12:14 10° S 22:16:31 73° WSW 22:20:53 10° NNW
Cosmos 405 3.9 22:15:57 10° NNW 22:19:23 45° W 22:22:47 10° S
Cosmos 1452 Rocket 4.2 22:14:51 10° NNW 22:19:56 45° ENE 22:24:15 14° SE
Nadezhda 1 Rocket 4.3 22:14:40 10° SSW 22:21:02 77° W 22:27:29 10° N
Cosmos 2058 Rocket 3.3 22:18:08 10° N 22:22:31 58° ENE 22:26:05 15° SSE
Cosmos 2369 3.8 22:17:46 10° NNW 22:23:33 75° ENE 22:28:21 15° SE
Cosmos 2154 Rocket 4.3 22:20:04 10° NNW 22:26:26 74° W 22:32:45 10° S
Cosmos 1025 Rocket 3.1 22:22:21 10° SSW 22:26:37 78° W 22:30:56 10° N
Cosmos 1371 Rocket 4.4 22:21:52 10° NNW 22:27:09 61° WSW 22:32:04 11° S
CARTOSAT-1 4.2 22:25:02 15° SE 22:28:16 43° ENE 22:32:22 10° N
SL-8 Rocket 4.2 22:22:49 10° N 22:29:00 60° ENE 22:34:13 15° SSE
SL-24 DEB 4.2 22:25:10 11° S 22:29:32 83° E 22:34:13 10° N
ISS -3.2 22:27:46 10° SSW 22:30:47 33° SSE 22:33:47 10° E
Cosmos 1697 Rocket 3.3 22:25:28 10° NNW 22:30:55 48° NE 22:35:27 15° SE
SL-16 R/B 4.3 22:28:09 10° N 22:32:00 18° NE 22:35:51 10° ENE
Cosmos 2366 rocket 4.4 22:27:27 10° N 22:33:27 49° ENE 22:38:08 16° SE
COSMOS 2487 3.5 22:33:29 19° SSE 22:35:11 28° ESE 22:38:18 10° NE
Cosmos 1656 3.6 22:42:38 10° NNW 22:48:07 82° ENE 22:52:03 20° SSE
Aureole 1 Rocket 4.0 22:46:05 10° SW 22:48:57 31° WNW 22:51:41 10° N
Cosmos 1812 Rocket 4.5 22:45:22 10° N 22:49:34 37° ENE 22:52:09 20° SE
USA 229 DEB 4.3 22:42:48 10° NW 22:49:48 57° NE 22:56:23 12° ESE
USA 229 4.3 22:42:55 10° NW 22:49:54 57° NE 22:56:30 12° ESE
Cosmos 1437 Rocket 4.0 22:48:02 10° NNW 22:51:33 35° W 22:54:57 11° SSW
Cosmos 1833 Rocket 3.3 22:49:16 18° SSE 22:52:50 36° ESE 22:57:56 10° NE
H-2A R/B 2.2 22:50:15 20° SSE 22:53:19 75° ENE 22:57:52 10° NNW
Cosmos 2341 Rocket 4.5 22:49:31 10° NNW 22:55:45 61° W 23:01:47 11° S
TELKOM 3 4.1 22:53:41 10° W 22:56:02 37° SSW 22:56:54 29° SSE
Cosmos 967 Rocket 4.4 22:50:13 10° SSW 22:56:23 64° ESE 23:02:37 10° NE
PSLV R/B 3.3 22:55:58 31° SE 22:56:57 49° ENE 22:59:42 10° N
Cosmos 1066 Rocket 4.3 22:55:52 17° S 23:00:04 62° E 23:05:39 10° NNE
Cosmos 1953 4.2 22:58:58 10° NNE 23:02:03 20° ENE 23:04:01 15° ESE
SL-08 R/B 4.5 22:56:13 10° N 23:02:22 76° E 23:06:42 20° SSE
USA 234 4.0 22:57:11 10° E 23:03:31 53° NNE 23:09:49 10° WNW
H-2A R/B 2.6 23:00:23 14° S 23:04:26 50° W 23:09:22 10° NNW
Cosmos 1626 Rocket 3.9 23:02:24 24° SSE 23:04:40 48° E 23:08:51 10° NNE
Cosmos 1271 Rocket 3.7 23:02:35 10° N 23:06:12 36° ENE 23:07:57 23° ESE
SeaSat 1 3.8 23:04:14 12° ESE 23:08:13 32° NE 23:12:34 10° NNW
Cosmos 2218 Rocket 4.0 23:04:42 10° N 23:10:53 85° W 23:15:23 20° S
Landsat 7 4.3 23:08:14 18° S 23:11:42 54° W 23:16:23 10° NNW
DMSP B5D2-2 4.1 23:07:44 10° NNE 23:13:04 88° ESE 23:17:33 15° SSW
SL-19 R/B 4.2 23:07:56 10° NNE 23:13:22 65° ESE 23:16:59 20° S
IGS 5A 3.6 23:14:27 24° S 23:16:52 67° WSW 23:21:02 10° NNW
Cosmos 1980 Rocket 2.4 23:12:32 10° NNW 23:18:12 65° ENE 23:21:46 23° SE
Meteor 1-4 Rocket 2.8 23:16:51 10° NNW 23:20:27 61° W 23:22:05 29° S
Cosmos 2228 4.2 23:22:30 10° NNW 23:26:30 37° W 23:29:24 16° SSW
Terra 2.3 23:23:45 21° S 23:26:45 55° W 23:31:27 10° NNW
Lacrosse 5 rocket 3.0 23:22:31 10° NW 23:26:51 38° NNE 23:31:13 10° E
Cosmos 2322 Rocket 3.4 23:21:47 10° NNW 23:26:58 34° NE 23:31:27 13° ESE
Cosmos 1766 3.2 23:24:47 10° N 23:28:44 87° ENE 23:30:21 34° S
ATLAS CENTAUR R/B 3.1 23:28:13 10° NNW 23:31:18 23° NE 23:34:13 10° E
CZ-2C R/B 4.3 23:29:20 18° ESE 23:32:45 34° ENE 23:37:48 10° N
CZ-4B R/B 3.5 23:30:35 10° NNE 23:35:37 69° ESE 23:38:30 26° S
Cosmos 158 Rocket 4.5 23:33:46 28° SSE 23:36:03 44° ESE 23:41:08 10° NE
Meteor 2-14 Rocket 4.5 23:29:58 10° NNW 23:36:06 80° W 23:39:51 24° S
DELTA 2 DEB (DPAF) 4.1 23:34:32 31° SSE 23:36:42 86° WSW 23:41:13 10° NNW
deb Chang Zheng 4 3.6 23:32:29 10° NNE 23:36:50 78° WNW 23:39:30 23° SSW
Spot 4 3.9 23:34:50 28° S 23:37:20 78° WSW 23:42:11 10° NNW
Cosmos 1602 Rocket 3.5 23:36:05 26° SSW 23:38:31 81° WNW 23:42:52 10° N
Meteor 1-22 Rocket 4.4 23:34:46 10° NNW 23:39:59 62° W 23:43:08 24° S
Cosmos 1269 Rocket 4.3 23:38:32 29° SSE 23:40:55 49° ESE 23:46:02 10° NNE
Cosmos 1758 3.6 23:38:00 10° N 23:41:57 53° ENE 23:43:19 35° SE
Nadezhda 3 Rocket 4.2 23:40:59 26° SSE 23:44:36 61° E 23:50:51 10° NNE
Cosmos 1470 4.1 23:42:12 10° N 23:45:46 30° ENE 23:47:09 24° ESE
Cosmos 1420 Rocket 4.4 23:45:14 10° NNW 23:50:23 54° WSW 23:52:56 28° S
Cosmos-2242 4.2 23:49:20 10° N 23:53:15 32° ENE 23:54:54 24° ESE
